This demonstration page uses our WeatherBlox Daily Observations layout. Learn more.

Left ArrowRight Arrow

39.01783, -85.05884

Hourly Observations for November 10, 2018

Temp ( °F °C ) Dew Point ( °F °C ) Humidity (%) Winds ( mph kmh ) Pressure ( in mb ) Visibility ( mi km ) Precip ( " mm )
12:52 am 00:52 Mostly Clear 30 -1.1 22 -5.6 72 72 W 12 19 30.20 1023 10 16 0.00 0.00
1:52 am 01:52 Cloudy 31 -0.6 22 -5.6 69 69 W 10 17 30.20 1023 10 16 0.00 0.00
2:20 am 02:20 Cloudy with Light Snow 31 -0.6 22 -5.6 69 69 W 14 22 30.27 1025 9 14 0.00 0.03
2:52 am 02:52 Cloudy with Light Snow 30 -1.1 24 -4.4 79 79 W 10 17 30.22 1023 6 10 0.00 0.03
3:52 am 03:52 Cloudy with Light Snow 29 -1.7 22 -5.6 75 75 WNW 17 28 30.25 1024 8 13 0.00 0.03
4:19 am 04:19 Mostly Cloudy 28 -2.2 19 -7.2 69 69 WNW 20 31 30.30 1026 10 16 0.00 0.03
4:52 am 04:52 Mostly Cloudy 28 -2.2 20 -6.7 72 72 WNW 20 31 30.28 1025 10 16 0.00 0.03
5:52 am 05:52 Cloudy 25 -3.9 14 -10 63 63 NW 20 31 30.33 1027 10 16 0.00 0.00
6:52 am 06:52 Clear 23 -5 9 -12.8 55 55 WNW 13 20 30.35 1028 10 16 0.00 0.00
7:52 am 07:52 Sunny 23 -5 12 -11.1 63 63 W 12 19 30.38 1029 10 16 0.00 0.00
8:52 am 08:52 Sunny 24 -4.4 13 -10.6 62 62 W 13 20 30.41 1030 10 16 0.00 0.00
9:52 am 09:52 Sunny 26 -3.3 13 -10.6 57 57 W 14 22 30.43 1031 10 16 0.00 0.00
10:52 am 10:52 Sunny 29 -1.7 14 -10 54 54 WNW 12 19 30.44 1031 10 16 0.00 0.00
11:52 am 11:52 Mostly Sunny 31 -0.6 14 -10 49 49 NW 8 13 30.43 1031 10 16 0.00 0.00
12:52 pm 12:52 Sunny 33 0.6 14 -10 45 45 NNW 9 15 30.42 1030 10 16 0.00 0.00
1:52 pm 13:52 Sunny 34 1.1 14 -10 44 44 VRB 5 7 30.40 1030 10 16 0.00 0.00
2:52 pm 14:52 Sunny 36 2.2 15 -9.4 42 42 NW 10 17 30.40 1030 10 16 0.00 0.00
3:52 pm 15:52 Sunny 36 2.2 14 -10 40 40 NW 7 11 30.40 1029 10 16 0.00 0.00
4:52 pm 16:52 Sunny 34 1.1 14 -10 44 44 NNW 3 6 30.39 1029 10 16 0.00 0.00
5:52 pm 17:52 Mostly Clear 31 -0.6 16 -8.9 54 54 W 3 6 30.39 1029 10 16 0.00 0.00
6:52 pm 18:52 Clear 29 -1.7 16 -8.9 58 58 WSW 3 6 30.39 1029 10 16 0.00 0.00
7:52 pm 19:52 Clear 30 -1.1 17 -8.3 58 58 Calm 30.39 1029 10 16 0.00 0.00
8:52 pm 20:52 Clear 29 -1.7 17 -8.3 61 61 Calm 30.39 1029 10 16 0.00 0.00
9:52 pm 21:52 Clear 28 -2.2 18 -7.8 66 66 Calm 30.38 1029 10 16 0.00 0.00
10:52 pm 22:52 Clear 26 -3.3 18 -7.8 71 71 SE 3 6 30.39 1029 10 16 0.00 0.00
11:52 pm 23:52 Clear 27 -2.8 18 -7.8 69 69 SE 3 6 30.38 1029 10 16 0.00 0.00

Powered by AerisWeather